Regional Weather Roundup
Issued by NWS Binghamton, NY

Home | Current Version | Previous Version | Text Only | Print | Product List | Glossary On
Versions: 1 2 3 4 5 6 7 8 9 10 11 12 13 14 15 16 17 18 19 20 21 22 23 24 25 26 27
000
ASUS41 KBGM 251410
RWRBGM

REGIONAL WEATHER ROUNDUP
NATIONAL WEATHER SERVICE BINGHAMTON NY
1000 AM EDT WED APR 25 2018

Note: "fair" indicates few or no clouds below 12,000 feet with no
significant weather and/or obstructions to visibility.

* = Station(s) that does not report precipitation, such as rain,
snow, etc, also no thunder or fog.

NYZ009-015>018-022>025-036-037-044>046-055>057-062-251500
...Central New York...

CITY           SKY/WX    TMP DP  RH WIND       PRES   REMARKS
Binghamton     LGT RAIN  49  48  97 SE9       29.85F FOG
Cortland       CLOUDY    50  50 100 E8        29.87F
Dansville      CLOUDY    55  48  77 SE5       29.85F
Elmira         CLOUDY    52  51  97 N5        29.85F
Ithaca         CLOUDY    52  50  93 SE10      29.86F FOG
Monticello     LGT RAIN  48  47  96 E9        29.90F FOG
Oneonta        RAIN      46 N/A N/A CALM      29.88F
Penn Yan       CLOUDY    50  48  93 VRB3      29.86F FOG
Rome           LGT RAIN  50  49  96 E8        29.93F
Sidney         LGT RAIN  50  50 100 CALM      29.88F
Syracuse       CLOUDY    51  51 100 NE13      29.88F
$$

PAZ038>040-043-044-047-048-072-251500
...Northeast Pennsylvania...

CITY           SKY/WX    TMP DP  RH WIND       PRES   REMARKS
Hazleton       LGT RAIN  52  50  93 E6        29.86F
Scranton       HVY RAIN  53  52  96 VRB5      29.85S FOG
$$
&&
KEY
WCI = Wind Chill Index
VSB = Visibility
HX  = Heat Index
$$




USA.gov is the U.S. government's official web portal to all federal, state and local government web resources and services.